Tracking 19709 objects as of 19-Jun-2019
HD Live streaming from Space Station
objects crossing your sky now

DELTA 1 DEB

Track DELTA 1 DEB now!
10-day predictions


NORAD ID: 7166
Int'l Code: 1973-086EE
Perigee: 1,498.6 km
Apogee: 1,520.7 km
Inclination: 102.0 °
Period: 116.0 minutes
Semi major axis: 7880 km
RCS: 0.0457 m2 (small)
Launch date: November 6, 1973
Source: United States (US)
Launch site: AIR FORCE WESTERN TEST RANGE (AFWTR)

Note: This is SATELLITE DEBRIS
aabbcc
Your satellite tracking list
Your tracking list is empty




NASA's NSSDC Master Catalog

Two Line Element Set (TLE):
1  7166U 73086EE  19170.51455645 -.00000022  00000-0  17100-3 0  9994
2  7166 101.9868 142.4438 0014005 332.4821 148.7928 12.40974410 63846
Source of the keplerian elements: AFSPC